Regional Weather Roundup
Issued by NWS Upton, NY

Home | Current Version | Previous Version | Text Only | Print | Product List | Glossary On
Versions: 1 2 3 4 5 6 7 8 9 10 11 12 13 14 15 16 17 18 19 20 21 22 23 24 25 26 27 28 29 30 31 32 33 34 35 36 37 38 39 40 41 42 43 44 45 46 47 48 49 50
000
ASUS41 KOKX 062304
RWROKX

REGIONAL WEATHER ROUNDUP
NATIONAL WEATHER SERVICE NEW YORK NY
700 PM EDT FRI MAY 06 2016

NOTE: "FAIR" INDICATES FEW OR NO CLOUDS BELOW 12,000 FEET WITH NO
SIGNIFICANT WEATHER AND/OR OBSTRUCTIONS TO VISIBILITY.

NYZ071-072-176-178-NJZ106-104-070000-
NEW YORK CITY METRO AREA


CITY           SKY/WX    TMP DP  RH WIND       PRES   REMARKS
CENTRAL PARK   CLOUDY    52  47  83 E10G16    29.79S
LAGUARDIA APRT CLOUDY    54  50  86 E13G22    29.77S
KENNEDY INTL   CLOUDY    50  47  89 E14G25    29.80R
NEWARK/LIBERTY DRIZZLE   51  48  89 E9G18     29.77R
BRNX BOT. GARD   N/A     50  48  93 E8        29.79S
TETERBORO      LGT RAIN  51  48  89 E6        29.77R FOG
$$

NYZ177-179-078>081-070000-
LONG ISLAND NEW YORK

CITY           SKY/WX    TMP DP  RH WIND       PRES   REMARKS
FARMINGDALE    CLOUDY    49  46  90 E14       29.80R
ISLIP          LGT RAIN  48  45  89 E15G23    29.80R
SHIRLEY        CLOUDY    48  45  89 VRB6      29.82R
RIVERHEAD        N/A     48  46  93 SE6       29.80F
WESTHAMPTON    LGT RAIN  42  42 100 E9G21     29.82
EAST HAMPTON   LGT RAIN  46  44  93 E14G22    29.84R
MONTAUK POINT    N/A     47  45  93 E6G16     29.87R
$$

NYZ052-065-067-070000-
HUDSON VALLEY

CITY           SKY/WX    TMP DP  RH WIND       PRES   REMARKS
WHITE PLAINS     N/A     49  47  93 E16G22    29.78S FOG
NEWBURGH       CLOUDY    52  52 100 SE9       29.79S FOG
MONTGOMERY     CLOUDY    54  51  90 E7        29.77S
POUGHKEEPSIE   CLOUDY    56  52  86 SE6       29.78S
ALBANY         LGT RAIN  56  53  90 CALM      29.80S
$$

NJZ001-105-106-008-010-013-015-019>022-104-070000-
NEW JERSEY

CITY           SKY/WX    TMP DP  RH WIND       PRES   REMARKS
NEWARK/LIBERTY DRIZZLE   51  48  89 E9G18     29.77R
TETERBORO      LGT RAIN  51  48  89 E6        29.77R FOG
CALDWELL       LGT RAIN  51  49  92 E9        29.77R FOG
MORRISTOWN     DRIZZLE   52  50  93 E13G20    29.77R FOG
SOMERVILLE     CLOUDY    51  48  89 E7G20     29.73R FOG
SUSSEX         CLOUDY    52  48  86 NE10      29.77R
ANDOVER          N/A     52  48  86 VRB5      29.76R
TRENTON        CLOUDY    50  48  93 E12G22    29.71R FOG
MILLVILLE      LGT RAIN  52  49  89 SE9       29.68R
ATLANTIC CITY  CLOUDY    52  47  83 S10       29.71R
WRIGHTSTOWN    CLOUDY    52  49  92 E8        29.69R
TOMS RIVER     CLOUDY    52  46  82 SE12      29.74R
BELMAR         CLOUDY    49  47  93 E14       29.76R
$$

PAZ047>061-062-071-070000-
EASTERN PENNSYLVANIA

CITY           SKY/WX    TMP DP  RH WIND       PRES   REMARKS
PHILADELPHIA   CLOUDY    54  49  83 SE10      29.69R
ALLENTOWN      CLOUDY    52  48  86 E17       29.72R
SCRANTON       CLOUDY    54  49  83 NE8       29.73R
$$

CTZ002-004>006-009-010-012-RIZ004-006-007-MAZ004-011-015-070000-
SOUTHERN NEW ENGLAND
 IN CT

CITY           SKY/WX    TMP DP  RH WIND       PRES   REMARKS
BRADLEY INTL   RAIN      53  50  89 E9        29.83R FOG
HARTFORD       CLOUDY    56  52  86 E6        29.83R
DANBURY        CLOUDY    49  47  93 E8        29.83R FOG
WTRBRY/OXFORD  LGT RAIN  52  48  87 SE5       29.84R FOG
BRIDGEPORT     LGT RAIN  50  47  89 E16       29.82F FOG
MERIDEN        CLOUDY    54  50  86 SE3       29.83R FOG
NEW HAVEN      CLOUDY    48  46  93 E16G25    29.84R FOG
CHESTER        FOG       48  48 100 SE8       29.85R VSB 1
GROTON         LGT RAIN  48  47  96 E13       29.86R FOG
WILLIMANTIC    LGT RAIN  54  49  83 E5        29.85R

 IN RI

CITY           SKY/WX    TMP DP  RH WIND       PRES   REMARKS
PROVIDENCE     CLOUDY    49  46  90 NE7       29.88R FOG
BLOCK ISLAND   CLOUDY    46  44  93 E12G23    29.87R
WESTERLY       LGT RAIN  48  45  89 E9        29.86R FOG

 IN MA

CITY           SKY/WX    TMP DP  RH WIND       PRES   REMARKS
BOSTON         MOCLDY    48  42  80 E14       29.91S
WORCESTER      RAIN      47  44  90 E10       29.87R FOG
WESTFIELD      HVY RAIN  53  50  89 VRB5      29.84R FOG
PROVINCETOWN   CLOUDY    47  43  86 E13G21    29.90R
NANTUCKET      CLOUDY    48  43  82 E16G24    29.86S
$$

ANZ330-335-338-340-345-350-353-355-070000-
COASTAL MARINE OBSERVATIONS


STATION/POSITION TIME  SKY/WX   TEMP    WIND        PRES    VSBY  WAVE
                                AIR SEA DIR/SP/G                  HT/PER
                 (UTC)          (F)     (DEG/KT/KT) (MB)    (MI)  (FT/S)
NY HARB ENTRANCE 2150            48 50   80/ 21/ 27 1006.6          9/ 8
20S FIRE ISLAND  2150            47 47   90/ 19/ 23 1006.9         10/ 7
GREAT SOUTH BAY  2230            48 53   70/ 19/ 27   N/A
23 SSW MONTAUK P 2250            46 46   90/ 21/ 25 1008.5          9/11
15 E BARNEGAT LI 2222               49                N/A           9/ 7
HUDSON CANYON    2150            52 48              1007.0          9/10
KINGS POINT      2200            52 53              1008.1
EXECUTION ROCKS  NOT AVBL
CENTRAL LI SOUND NOT AVBL
EASTERN LI SOUND NOT AVBL
ROBBINS REEF     2200            50                 1006.8
$$


>>>>>>>>>>>>>>>>>>>>>>>>>>>> KEY <<<<<<<<<<<<<<<<<<<<<<<<<<<
>                                                          <
>     SKY/WX - SKY CONDITION/PRESENT WEATHER               <
>     TMP    - TEMPERATURE IN FAHRENHEIT                   <
>     DP     - DEWPOINT IN FAHRENHEIT                      <
>     RH     - RELATIVE HUMIDITY IN PERCENT                <
>     WIND   - DIRECTION AND SPEED IN MPH                  <
>     PRES   - MEAN SEA LEVEL PRESSURE IN INCHES OF HG     <
>     WCI    - WIND CHILL INDEX                            <
>     VSB    - VISIBILITY IN MILES                         <
>     HX     - HEAT INDEX                                  <
>     TC     - TEMPERATURE IN CELSIUS                      <
>     VRB    - VARIABLE WIND DIRECTION                     <
>                                                          <
>>>>>>>>>>>>>>>>>>>>>>>>>>>> KEY <<<<<<<<<<<<<<<<<<<<<<<<<<<





USA.gov is the U.S. government's official web portal to all federal, state and local government web resources and services.